Big Rapids, MI

6:01 AM EDT on October 15, 2019 (GMT -0400)
Roben-Hood

Weather History for KRQB - August, 2019

Change the Weather History Date:

Friday, August 30, 2019

  Actual Average Record
Temperature  
Mean Temperature 60 °F -  
Max Temperature 70 °F 78 °F 89 °F (1973)
Min Temperature 49 °F 54 °F 37 °F (1976)
Degree Days  
Heating Degree Days 6    
Growing Degree Days 10 (Base 50)    
Moisture  
Dew Point 50 °F    
Average Humidity 70    
Maximum Humidity 97    
Minimum Humidity 37    
Precipitation  
Precipitation 0.00 in - - ()
Sea Level Pressure  
Sea Level Pressure 30.07 in    
Wind  
Wind Speed 4 mph (WNW)    
Max Wind Speed 12 mph    
Max Gust Speed 23 mph    
Visibility 10 miles    
Events      
Averages and records for this station are not official NWS values.
T = Trace of Precipitation, MM = Missing Value Source: NWS Daily Summary

Daily Weather History Graph

Daily Weather History Graph

Search for Another Location

Airport or City:

Astronomy

Aug. 30, 2019 Rise Set
Actual Time 7:03 AM EDT 8:21 PM EDT
Civil Twilight 6:33 AM EDT 8:51 PM EDT
Nautical Twilight 5:57 AM EDT 9:26 PM EDT
Astronomical Twilight 5:19 AM EDT 10:04 PM EDT
Moon 7:01 AM EDT (8/30) 8:57 PM EDT (8/30)
Length of Visible Light 14h 17m
Length of Day
13h 18m
New Moon, 0% of the Moon is Illuminated
Aug 30
New Moon
Sep 5
First Quarter
Sep 14
Full
Sep 21
Last Quarter
Sep 28
New

Hourly Weather History & Observations

Time (EDT) Temp. Dew Point Humidity Pressure Visibility Wind Dir Wind Speed Gust Speed Precip Events Conditions
12:15 AM 62.2 °F 59.2 °F 90% 29.88 in 10.0 mi WNW 4.6 mph - N/A   Scattered Clouds
12:35 AM 61.7 °F 58.6 °F 90% 29.88 in 10.0 mi NW 3.5 mph - N/A   Clear
12:36 AM 61.7 °F 58.6 °F 90% 29.88 in 10.0 mi NW 3.5 mph - N/A   Clear
12:59 AM 61.0 °F 57.7 °F 89% 29.89 in 10.0 mi WNW 3.5 mph - N/A   Clear
1:16 AM 60.1 °F 57.2 °F 90% 29.90 in 10.0 mi WNW 3.5 mph - N/A   Clear
1:35 AM 59.9 °F 57.2 °F 91% 29.91 in 10.0 mi West 5.8 mph - N/A   Clear
1:36 AM 59.9 °F 57.2 °F 91% 29.91 in 10.0 mi West 5.8 mph - N/A   Clear
1:55 AM 59.4 °F 56.5 °F 90% 29.92 in 10.0 mi WNW 5.8 mph - N/A   Clear
2:00 AM 59.9 °F 56.5 °F 88% 29.92 in 10.0 mi WNW 5.8 mph - N/A   Clear
2:17 AM 59.5 °F 56.1 °F 88% 29.93 in 10.0 mi West 4.6 mph - N/A   Clear
2:35 AM 59.0 °F 55.9 °F 90% 29.93 in 10.0 mi West 4.6 mph - N/A   Clear
2:36 AM 59.0 °F 55.9 °F 90% 29.93 in 10.0 mi West 4.6 mph - N/A   Clear
2:55 AM 58.1 °F 55.2 °F 90% 29.93 in 10.0 mi WNW 4.6 mph - N/A   Clear
3:18 AM 57.7 °F 54.9 °F 90% 29.93 in 10.0 mi NW 3.5 mph - N/A   Clear
3:35 AM 56.3 °F 53.8 °F 91% 29.94 in 10.0 mi WSW 3.5 mph - N/A   Clear
3:36 AM 56.3 °F 53.8 °F 91% 29.94 in 10.0 mi West 3.5 mph - N/A   Clear
3:55 AM 56.3 °F 53.8 °F 91% 29.94 in 10.0 mi West 3.5 mph - N/A   Clear
3:56 AM 56.3 °F 53.8 °F 91% 29.94 in 10.0 mi West 3.5 mph - N/A   Clear
4:18 AM 54.0 °F 52.2 °F 94% 29.94 in 10.0 mi SSE 3.5 mph - N/A   Clear
4:36 AM 54.0 °F 52.5 °F 95% 29.94 in 2.0 mi Calm Calm - N/A   Scattered Clouds
4:55 AM 52.9 °F 51.8 °F 96% 29.95 in 3.0 mi Calm Calm - N/A   Clear
4:56 AM 52.9 °F 51.8 °F 96% 29.95 in 3.0 mi Calm Calm - N/A   Clear
5:15 AM 52.3 °F 51.3 °F 96% 29.95 in 10.0 mi Calm Calm - N/A   Clear
5:19 AM 51.3 °F 50.2 °F 96% 29.95 in 10.0 mi Calm Calm - N/A   Clear
5:37 AM 51.8 °F 50.9 °F 97% 29.96 in 1.0 mi Calm Calm - N/A   Overcast
5:55 AM 51.1 °F 50.4 °F 97% 29.97 in 10.0 mi Calm Calm - N/A   Scattered Clouds
5:56 AM 51.3 °F 50.5 °F 97% 29.97 in 10.0 mi Calm Calm - N/A   Scattered Clouds
6:15 AM 50.7 °F 49.8 °F 97% 29.98 in 10.0 mi WSW 3.5 mph - N/A   Clear
6:19 AM 49.8 °F 48.7 °F 96% 29.99 in 10.0 mi West 3.5 mph - N/A   Clear
6:38 AM 50.0 °F 49.1 °F 97% 29.99 in 7.0 mi Calm Calm - N/A   Clear
6:55 AM 49.8 °F 49.1 °F 97% 30.00 in 7.0 mi Calm Calm - N/A   Clear
6:56 AM 50.0 °F 49.3 °F 97% 30.00 in 7.0 mi Calm Calm - N/A   Clear
7:15 AM 50.0 °F 49.1 °F 97% 30.01 in 7.0 mi Calm Calm - N/A   Clear
7:16 AM 50.0 °F 49.3 °F 97% 30.01 in 7.0 mi Calm Calm - N/A   Clear
7:38 AM 53.4 °F 52.5 °F 97% 30.03 in 10.0 mi West 3.5 mph - N/A   Clear
7:56 AM 54.7 °F 53.6 °F 96% 30.03 in 10.0 mi West 3.5 mph - N/A   Clear
8:15 AM 56.7 °F 54.5 °F 92% 30.04 in 10.0 mi Calm Calm - N/A   Clear
8:16 AM 56.7 °F 54.5 °F 92% 30.04 in 10.0 mi Calm Calm - N/A   Clear
8:35 AM 58.3 °F 54.3 °F 87% 30.05 in 10.0 mi WNW 3.5 mph - N/A   Clear
8:57 AM 60.3 °F 54.5 °F 81% 30.06 in 10.0 mi West 5.8 mph - N/A   Clear
9:15 AM 61.7 °F 54.7 °F 78% 30.06 in 10.0 mi WNW 3.5 mph - N/A   Clear
9:35 AM 62.6 °F 54.3 °F 74% 30.08 in 10.0 mi WNW 4.6 mph - N/A   Clear
9:39 AM 63.0 °F 54.3 °F 73% 30.08 in 10.0 mi WNW 5.8 mph - N/A   Clear
9:58 AM 63.7 °F 53.2 °F 69% 30.09 in 10.0 mi West 5.8 mph - N/A   Clear
10:15 AM 63.9 °F 52.0 °F 65% 30.09 in 10.0 mi WNW 4.6 mph - N/A   Clear
10:16 AM 63.9 °F 51.8 °F 65% 30.09 in 10.0 mi NW 4.6 mph - N/A   Clear
10:36 AM 63.7 °F 52.7 °F 67% 30.09 in 10.0 mi WNW 5.8 mph - N/A   Clear
10:58 AM 64.8 °F 51.8 °F 63% 30.09 in 10.0 mi West 6.9 mph - N/A   Clear
11:16 AM 66.2 °F 50.7 °F 57% 30.09 in 10.0 mi WNW 8.1 mph - N/A   Clear
11:35 AM 66.4 °F 50.9 °F 57% 30.09 in 10.0 mi West 5.8 mph - N/A   Clear
11:36 AM 66.6 °F 51.1 °F 57% 30.09 in 10.0 mi WNW 6.9 mph - N/A   Clear
11:55 AM 66.7 °F 49.3 °F 53% 30.09 in 10.0 mi West 9.2 mph - N/A   Scattered Clouds
11:59 AM 67.6 °F 48.2 °F 50% 30.09 in 10.0 mi West 6.9 mph 18.4 mph N/A   Scattered Clouds
12:17 PM 67.3 °F 47.1 °F 48% 30.10 in 10.0 mi West 8.1 mph 16.1 mph N/A   Scattered Clouds
12:35 PM 67.6 °F 48.9 °F 51% 30.10 in 10.0 mi WNW 6.9 mph 16.1 mph N/A   Scattered Clouds
12:36 PM 67.8 °F 49.1 °F 51% 30.10 in 10.0 mi NW 9.2 mph 16.1 mph N/A   Scattered Clouds
12:55 PM 69.1 °F 48.2 °F 47% 30.10 in 10.0 mi West 9.2 mph 19.6 mph N/A   Mostly Cloudy
12:59 PM 69.4 °F 48.9 °F 48% 30.10 in 10.0 mi NW 9.2 mph 19.6 mph N/A   Mostly Cloudy
1:17 PM 68.7 °F 47.3 °F 46% 30.10 in 10.0 mi WNW 10.4 mph 19.6 mph N/A   Scattered Clouds
1:35 PM 68.9 °F 47.5 °F 46% 30.10 in 10.0 mi NNW 8.1 mph 23.0 mph N/A   Scattered Clouds
1:55 PM 68.5 °F 47.7 °F 47% 30.10 in 10.0 mi WNW 11.5 mph 20.7 mph N/A   Scattered Clouds
2:00 PM 69.4 °F 48.2 °F 47% 30.10 in 10.0 mi NW 9.2 mph 20.7 mph N/A   Scattered Clouds
2:17 PM 69.1 °F 45.5 °F 43% 30.10 in 10.0 mi WNW 8.1 mph 17.3 mph N/A   Scattered Clouds
2:35 PM 68.9 °F 47.1 °F 46% 30.10 in 10.0 mi NNW 6.9 mph - N/A   Scattered Clouds
2:36 PM 69.1 °F 46.9 °F 45% 30.10 in 10.0 mi NW 6.9 mph - N/A   Scattered Clouds
2:55 PM 69.8 °F 46.0 °F 43% 30.10 in 10.0 mi West 8.1 mph - N/A   Mostly Cloudy
2:56 PM 70.0 °F 46.2 °F 43% 30.10 in 10.0 mi West 6.9 mph - N/A   Mostly Cloudy
3:18 PM 68.2 °F 45.1 °F 43% 30.10 in 10.0 mi NW 10.4 mph 16.1 mph N/A   Scattered Clouds
3:36 PM 69.1 °F 44.2 °F 41% 30.11 in 10.0 mi West 9.2 mph - N/A   Clear
3:55 PM 70.3 °F 43.0 °F 37% 30.10 in 10.0 mi NW 8.1 mph - N/A   Clear
3:56 PM 70.2 °F 43.2 °F 38% 30.10 in 10.0 mi NW 6.9 mph - N/A   Clear
4:15 PM 70.2 °F 43.0 °F 37% 30.10 in 10.0 mi NNW 9.2 mph - N/A   Clear
4:37 PM 69.3 °F 43.7 °F 40% 30.11 in 10.0 mi North 5.8 mph - N/A   Clear
4:55 PM 69.8 °F 44.4 °F 40% 30.11 in 10.0 mi NNW 9.2 mph 17.3 mph N/A   Clear
5:15 PM 69.8 °F 43.2 °F 38% 30.12 in 10.0 mi NW 5.8 mph - N/A   Clear
5:19 PM 70.0 °F 43.5 °F 38% 30.12 in 10.0 mi WNW 5.8 mph - N/A   Clear
5:38 PM 69.3 °F 43.0 °F 39% 30.13 in 10.0 mi NW 8.1 mph - N/A   Clear
5:56 PM 68.7 °F 42.8 °F 39% 30.14 in 10.0 mi WNW 6.9 mph - N/A   Clear
6:15 PM 69.1 °F 42.8 °F 39% 30.14 in 10.0 mi WNW 5.8 mph - N/A   Clear
6:16 PM 69.1 °F 42.6 °F 38% 30.14 in 10.0 mi WNW 6.9 mph - N/A   Clear
6:39 PM 68.0 °F 43.2 °F 41% 30.15 in 10.0 mi NW 5.8 mph - N/A   Clear
6:57 PM 67.6 °F 43.3 °F 41% 30.15 in 10.0 mi NW 6.9 mph - N/A   Clear
7:15 PM 66.6 °F 44.1 °F 44% 30.15 in 10.0 mi North 6.9 mph - N/A   Clear
7:16 PM 66.4 °F 44.4 °F 45% 30.16 in 10.0 mi North 6.9 mph - N/A   Clear
7:40 PM 65.3 °F 45.0 °F 48% 30.17 in 10.0 mi NNW 6.9 mph - N/A   Clear
7:57 PM 64.0 °F 45.0 °F 50% 30.17 in 10.0 mi NW 6.9 mph - N/A   Clear
8:15 PM 63.0 °F 45.3 °F 53% 30.18 in 10.0 mi WNW 4.6 mph - N/A   Clear
8:16 PM 62.8 °F 45.3 °F 53% 30.18 in 10.0 mi WNW 3.5 mph - N/A   Clear
8:35 PM 61.0 °F 46.2 °F 58% 30.19 in 10.0 mi WNW 4.6 mph - N/A   Clear
8:36 PM 61.0 °F 46.4 °F 59% 30.19 in 10.0 mi WNW 4.6 mph - N/A   Clear
8:58 PM 59.5 °F 46.6 °F 62% 30.20 in 10.0 mi NW 4.6 mph - N/A   Clear
9:16 PM 59.9 °F 46.0 °F 60% 30.21 in 10.0 mi NW 4.6 mph - N/A   Clear
9:35 PM 59.0 °F 46.4 °F 63% 30.22 in 10.0 mi NW 3.5 mph - N/A   Clear
9:59 PM 57.6 °F 46.8 °F 67% 30.23 in 10.0 mi NW 4.6 mph - N/A   Clear
10:16 PM 57.6 °F 47.3 °F 69% 30.23 in 10.0 mi NNW 4.6 mph - N/A   Clear
10:35 PM 54.5 °F 47.5 °F 77% 30.23 in 10.0 mi Calm Calm - N/A   Clear
10:55 PM 54.0 °F 47.3 °F 78% 30.23 in 10.0 mi Calm Calm - N/A   Clear
11:00 PM 54.0 °F 47.1 °F 78% 30.24 in 10.0 mi Calm Calm - N/A   Clear
11:17 PM 51.8 °F 47.1 °F 84% 30.24 in 10.0 mi Calm Calm - N/A   Clear
11:35 PM 52.0 °F 47.7 °F 85% 30.25 in 10.0 mi Calm Calm - N/A   Clear
11:36 PM 51.8 °F 47.5 °F 85% 30.25 in 10.0 mi Calm Calm - N/A   Clear
11:55 PM 51.4 °F 47.3 °F 86% 30.25 in 10.0 mi Calm Calm - N/A   Clear
11:56 PM 51.3 °F 47.3 °F 86% 30.25 in 10.0 mi Calm Calm - N/A   Clear